Reno - Stead, NV

11:46 AM PST on December 17, 2017 (GMT -0800)
Reno - Stead

Weather History for KRTS - May, 2013

Change the Weather History Date:

Thursday, May 23, 2013

  Actual Average (KRNO) Record (KRNO)
Temperature  
Mean Temperature 42 °F -  
Max Temperature 59 °F 75 °F 94 °F (2001)
Min Temperature 26 °F 42 °F 26 °F (1960)
Degree Days  
Heating Degree Days 22    
Moisture  
Dew Point 14 °F    
Average Humidity 30    
Maximum Humidity 51    
Minimum Humidity 17    
Precipitation  
Precipitation 0.00 in - - ()
Sea Level Pressure  
Sea Level Pressure 29.94 in    
Wind  
Wind Speed 9 mph (NW)    
Max Wind Speed 18 mph    
Max Gust Speed 29 mph    
Visibility 10 miles    
Events      
Averages and records for this station are not official NWS values.
T = Trace of Precipitation, MM = Missing Value Source: NWS Daily Summary

Daily Weather History Graph

Daily Weather History Graph

Search for Another Location

Airport or City:

Trip Planner

Search our weather history database for the weather conditions in past years. The results will help you decide how hot, cold, wet, or windy it might be!

Date:

Astronomy

May. 23, 2013 Rise Set
Actual Time 5:38 AM PDT 8:14 PM PDT
Civil Twilight 5:07 AM PDT 8:45 PM PDT
Nautical Twilight 4:28 AM PDT 9:24 PM PDT
Astronomical Twilight 3:44 AM PDT 10:08 PM PDT
Moon 6:53 PM PDT (5/23) 4:26 AM PDT (5/23)
Length of Visible Light 15h 38m
Length of Day
14h 36m
Waxing Gibbous, 97% of the Moon is Illuminated
May 23
Waxing Gibbous
May 24
Full
May 31
Last Quarter
Jun 8
New
Jun 16
First Quarter

Hourly Weather History & Observations

Time (PDT) Temp. Windchill Dew Point Humidity Pressure Visibility Wind Dir Wind Speed Gust Speed Precip Events Conditions
12:15 AM 37.4 °F 31.4 °F 12.2 °F 36% 29.89 in 10.0 mi NW 8.1 mph - N/A   Clear
12:35 AM 37.4 °F 32.8 °F 12.2 °F 36% 29.88 in 10.0 mi NW 5.8 mph - N/A   Clear
12:55 AM 37.4 °F 31.4 °F 10.4 °F 33% 29.88 in 10.0 mi WNW 8.1 mph - N/A   Clear
1:15 AM 37.4 °F 32.1 °F 12.2 °F 36% 29.88 in 10.0 mi NNW 6.9 mph - N/A   Clear
1:35 AM 35.6 °F 29.2 °F 10.4 °F 35% 29.88 in 10.0 mi WNW 8.1 mph - N/A   Clear
1:55 AM 32.0 °F 25.6 °F 10.4 °F 41% 29.87 in 10.0 mi North 6.9 mph - N/A   Clear
2:15 AM 32.0 °F 24.8 °F 8.6 °F 38% 29.87 in 10.0 mi North 8.1 mph - N/A   Clear
2:35 AM 32.0 °F 24.8 °F 10.4 °F 41% 29.87 in 10.0 mi NNW 8.1 mph - N/A   Clear
2:55 AM 32.0 °F 26.4 °F 10.4 °F 41% 29.87 in 10.0 mi North 5.8 mph - N/A   Clear
3:15 AM 32.0 °F 24.8 °F 12.2 °F 44% 29.87 in 10.0 mi NNW 8.1 mph - N/A   Partly Cloudy
3:35 AM 32.0 °F 24.2 °F 10.4 °F 41% 29.87 in 10.0 mi North 9.2 mph - N/A   Mostly Cloudy
3:55 AM 32.0 °F 24.8 °F 10.4 °F 41% 29.87 in 10.0 mi NNW 8.1 mph - N/A   Mostly Cloudy
4:15 AM 28.4 °F 19.7 °F 10.4 °F 47% 29.87 in 10.0 mi North 9.2 mph - N/A   Overcast
4:35 AM 30.2 °F 22.6 °F 10.4 °F 44% 29.87 in 10.0 mi North 8.1 mph - N/A   Scattered Clouds
4:55 AM 28.4 °F 19.7 °F 12.2 °F 51% 29.87 in 10.0 mi NNW 9.2 mph - N/A   Clear
5:15 AM 28.4 °F 19.7 °F 10.4 °F 47% 29.87 in 10.0 mi NW 9.2 mph - N/A   Clear
5:35 AM 26.6 °F 20.0 °F 10.4 °F 51% 29.88 in 10.0 mi North 5.8 mph - N/A   Clear
5:55 AM 30.2 °F 23.4 °F 12.2 °F 47% 29.88 in 10.0 mi NNW 6.9 mph - N/A   Clear
6:15 AM 32.0 °F 26.4 °F 14.0 °F 48% 29.88 in 10.0 mi NNW 5.8 mph - N/A   Clear
6:35 AM 35.6 °F 30.7 °F 14.0 °F 41% 29.88 in 10.0 mi NW 5.8 mph - N/A   Partly Cloudy
6:55 AM 37.4 °F 31.4 °F 14.0 °F 38% 29.88 in 10.0 mi North 8.1 mph - N/A   Partly Cloudy
7:15 AM 41.0 °F 34.3 °F 14.0 °F 33% 29.89 in 10.0 mi West 11.5 mph - N/A   Clear
7:35 AM 42.8 °F 37.0 °F 12.2 °F 29% 29.90 in 10.0 mi WNW 10.4 mph - N/A   Clear
7:55 AM 44.6 °F 39.2 °F 14.0 °F 29% 29.90 in 10.0 mi WNW 10.4 mph - N/A   Clear
8:15 AM 44.6 °F 38.4 °F 10.4 °F 25% 29.91 in 10.0 mi WNW 12.7 mph - N/A   Clear
8:35 AM 46.4 °F 41.1 °F 10.4 °F 23% 29.91 in 10.0 mi WNW 11.5 mph - N/A   Clear
8:55 AM 46.4 °F 41.9 °F 10.4 °F 23% 29.91 in 10.0 mi NW 9.2 mph 17.3 mph N/A   Clear
9:15 AM 46.4 °F 40.7 °F 10.4 °F 23% 29.91 in 10.0 mi NW 12.7 mph - N/A   Clear
9:35 AM 48.2 °F - 10.4 °F 22% 29.91 in 10.0 mi WNW 13.8 mph 18.4 mph N/A   Clear
9:55 AM 48.2 °F - 10.4 °F 22% 29.92 in 10.0 mi WNW 13.8 mph 19.6 mph N/A   Clear
10:15 AM 50.0 °F - 10.4 °F 20% 29.92 in 10.0 mi WNW 17.3 mph 21.9 mph N/A   Clear
10:35 AM 50.0 °F - 8.6 °F 19% 29.92 in 10.0 mi WNW 16.1 mph 23.0 mph N/A   Clear
10:55 AM 50.0 °F - 10.4 °F 20% 29.93 in 10.0 mi WNW 11.5 mph 24.2 mph N/A   Clear
11:15 AM 51.8 °F - 10.4 °F 19% 29.93 in 10.0 mi WNW 11.5 mph 24.2 mph N/A   Clear
11:35 AM 51.8 °F - 12.2 °F 21% 29.93 in 10.0 mi West 9.2 mph 19.6 mph N/A   Clear
11:55 AM 55.4 °F - 14.0 °F 20% 29.93 in 10.0 mi WSW 12.7 mph 21.9 mph N/A   Scattered Clouds
12:15 PM 53.6 °F - 14.0 °F 21% 29.93 in 10.0 mi WNW 10.4 mph 28.8 mph N/A   Scattered Clouds
12:35 PM 55.4 °F - 10.4 °F 17% 29.93 in 10.0 mi West 10.4 mph 17.3 mph N/A   Scattered Clouds
12:55 PM 53.6 °F - 17.6 °F 24% 29.94 in 10.0 mi NNW 16.1 mph 26.5 mph N/A   Mostly Cloudy
1:15 PM 53.6 °F - 15.8 °F 22% 29.95 in 10.0 mi NW 18.4 mph 24.2 mph N/A   Mostly Cloudy
1:35 PM 53.6 °F - 14.0 °F 21% 29.94 in 10.0 mi NW 10.4 mph 23.0 mph N/A   Mostly Cloudy
1:55 PM 55.4 °F - 14.0 °F 20% 29.94 in 10.0 mi WSW 9.2 mph 21.9 mph N/A   Partly Cloudy
2:15 PM 55.4 °F - 15.8 °F 21% 29.95 in 10.0 mi NNW 10.4 mph 21.9 mph N/A   Clear
2:35 PM 57.2 °F - 14.0 °F 18% 29.96 in 10.0 mi NW 15.0 mph 23.0 mph N/A   Partly Cloudy
2:55 PM 57.2 °F - 15.8 °F 20% 29.96 in 10.0 mi NNW 15.0 mph 23.0 mph N/A   Scattered Clouds
3:15 PM 55.4 °F - 15.8 °F 21% 29.97 in 10.0 mi WNW 16.1 mph 23.0 mph N/A   Scattered Clouds
3:35 PM 55.4 °F - 15.8 °F 21% 29.96 in 10.0 mi NW 12.7 mph 23.0 mph N/A   Partly Cloudy
3:50 PM 57.2 °F - 14.0 °F 18% 29.97 in 10.0 mi West 15.0 mph 25.3 mph N/A   Scattered Clouds
4:15 PM 57.2 °F - 15.8 °F 20% 29.97 in 10.0 mi WNW 15.0 mph 23.0 mph N/A   Partly Cloudy
4:35 PM 59.0 °F - 14.0 °F 17% 29.98 in 10.0 mi WNW 13.8 mph 19.6 mph N/A   Partly Cloudy
4:55 PM 57.2 °F - 15.8 °F 20% 29.98 in 10.0 mi NW 12.7 mph 24.2 mph N/A   Clear
5:15 PM 57.2 °F - 14.0 °F 18% 29.98 in 10.0 mi WNW 12.7 mph 27.6 mph N/A   Clear
5:35 PM 57.2 °F - 15.8 °F 20% 29.98 in 10.0 mi WNW 11.5 mph 17.3 mph N/A   Partly Cloudy
5:55 PM 55.4 °F - 14.0 °F 20% 29.99 in 10.0 mi West 15.0 mph 20.7 mph N/A   Partly Cloudy
6:15 PM 55.4 °F - 14.0 °F 20% 29.99 in 10.0 mi WNW 13.8 mph - N/A   Clear
6:35 PM 55.4 °F - 17.6 °F 23% 29.99 in 10.0 mi WNW 16.1 mph 20.7 mph N/A   Clear
6:55 PM 55.4 °F - 17.6 °F 23% 29.99 in 10.0 mi WNW 16.1 mph 19.6 mph N/A   Clear
7:15 PM 55.4 °F - 17.6 °F 23% 30.00 in 10.0 mi NW 11.5 mph - N/A   Clear
7:35 PM 53.6 °F - 17.6 °F 24% 30.01 in 10.0 mi WNW 10.4 mph - N/A   Clear
7:55 PM 53.6 °F - 19.4 °F 26% 30.01 in 10.0 mi WNW 9.2 mph - N/A   Clear
8:15 PM 50.0 °F - 19.4 °F 30% 30.02 in 10.0 mi NW 9.2 mph - N/A   Clear
8:35 PM 48.2 °F - 19.4 °F 32% 30.02 in 10.0 mi WNW 6.9 mph - N/A   Clear
8:55 PM 44.6 °F 41.4 °F 17.6 °F 34% 30.02 in 10.0 mi NW 5.8 mph - N/A   Clear
9:15 PM 46.4 °F 44.3 °F 19.4 °F 34% 30.03 in 10.0 mi West 4.6 mph - N/A   Clear
9:35 PM 44.6 °F 42.2 °F 19.4 °F 37% 30.03 in 10.0 mi WSW 4.6 mph - N/A   Clear
9:55 PM 44.6 °F - 19.4 °F 37% 30.04 in 10.0 mi Calm Calm - N/A   Clear
10:15 PM 44.6 °F 42.2 °F 19.4 °F 37% 30.05 in 10.0 mi West 4.6 mph - N/A   Clear
10:35 PM 42.8 °F 39.3 °F 19.4 °F 39% 30.05 in 10.0 mi WNW 5.8 mph - N/A   Clear
10:55 PM 44.6 °F - 21.2 °F 39% 30.06 in 10.0 mi Calm Calm - N/A   Clear
11:15 PM 46.4 °F - 23.0 °F 40% 30.06 in 10.0 mi Calm Calm - N/A   Clear
11:35 PM 46.4 °F 44.3 °F 21.2 °F 37% 30.05 in 10.0 mi NW 4.6 mph - N/A   Clear
11:55 PM 39.2 °F 35.0 °F 19.4 °F 45% 30.05 in 10.0 mi NNW 5.8 mph - N/A   Clear